User: anonymous   Login
Location: Unspecified
(0.0000°N, 0.0000°E)
Time: 20:09:57
(UTC+00:00)
Language:

Oscar 14 - Orbit

View from above orbital plane
View from above orbital plane
View from above satellite
View from above satellite

Ground track
Ground track

The orbit data is extracted from the following two-line orbital elements,

1 20437U 90005B   19341.15002538 -.00000002  00000-0  16182-4 0  9997
2 20437  98.7806 299.6542 0011449  47.8019 323.3445 14.32331973560462
Epoch (UTC): 07 December 2019 03:36:02
Eccentricity: 0.0011449
inclination: 98.7806°
perigee height: 776 km
apogee height: 792 km
right ascension of ascending node: 299.6542°
argument of perigee: 47.8019°
revolutions per day: 14.32331973
mean anomaly at epoch: 323.3445°
orbit number at epoch: 56046

The dashed part of the orbit path shows where the satellite is in the earth's shadow,  

DLR